Pratica di Mare, Italy

2:37 PM CET on February 21, 2017 (GMT +0100)
Pratica Di Mare Mil

Weather History for LIRE - December, 2012

Change the Weather History Date:

Friday, December 7, 2012

  Actual Average Record
Temperature  
Mean Temperature 45 °F -  
Max Temperature 57 °F 57 °F 68 °F (2004)
Min Temperature 33 °F 41 °F 33 °F (2012)
Degree Days  
Heating Degree Days 20    
Moisture  
Dew Point 40 °F    
Average Humidity 79    
Maximum Humidity 95    
Minimum Humidity 26    
Precipitation  
Precipitation 0.04 in 0.13 in - ()
Sea Level Pressure  
Sea Level Pressure 29.82 in    
Wind  
Wind Speed 11 mph ()    
Max Wind Speed 25 mph    
Max Gust Speed 36 mph    
Visibility 5.8 miles    
Events Rain , Thunderstorm    
Averages and records for this station are not official NWS values.
T = Trace of Precipitation, MM = Missing Value Source: Averaged Metar Reports

Daily Weather History Graph

Daily Weather History Graph

Search for Another Location

Airport or City:

Trip Planner

Search our weather history database for the weather conditions in past years. The results will help you decide how hot, cold, wet, or windy it might be!

Date:

Astronomy

Dec. 07, 2012 Rise Set
Actual Time 7:23 AM CET 4:39 PM CET
Civil Twilight 6:52 AM CET 5:11 PM CET
Nautical Twilight 6:17 AM CET 5:45 PM CET
Astronomical Twilight 5:44 AM CET 6:19 PM CET
Moon 12:20 AM CET (12/7) 12:32 PM CET (12/7)
Length of Visible Light 10h 18m
Length of Day
9h 16m
Last Quarter, 41% of the Moon is Illuminated
Dec 7
Last Quarter
Dec 13
New
Dec 20
First Quarter
Dec 28
Full
Jan 5
Last Quarter

Hourly Weather History & Observations

Time (CET) Temp. Windchill Dew Point Humidity Pressure Visibility Wind Dir Wind Speed Gust Speed Precip Events Conditions
1:00 AM 36 °F - 35 °F 93% 29.91 in 6 mi NNE 8.1 mph - -  
1:55 AM 35.6 °F 29.2 °F 33.8 °F 93% 29.92 in - North 8.1 mph - N/A   Clear
3:55 AM 35.6 °F 27.5 °F 33.8 °F 93% 29.89 in - NNE 11.5 mph - N/A   Clear
4:00 AM 36 °F - 34 °F 91% 29.92 in 6 mi NNE 11.5 mph - -   Partly Cloudy
4:55 AM 35.6 °F 27.5 °F 33.8 °F 93% 29.89 in - NNE 11.5 mph - N/A   Clear
5:55 AM 35.6 °F 27.5 °F 30.2 °F 81% 29.89 in 6.2 mi NNE 11.5 mph - N/A   Scattered Clouds
6:55 AM 33.8 °F 25.8 °F 32.0 °F 93% 29.92 in 6.2 mi NNE 10.4 mph - N/A   Partly Cloudy
7:00 AM 33 °F - 32 °F 95% 29.93 in 9 mi NNE 10.4 mph - -   Scattered Clouds
8:55 AM 41.0 °F 35.2 °F 30.2 °F 65% 29.92 in 6.2 mi East 9.2 mph - N/A   Scattered Clouds
9:55 AM 48.2 °F - 23.0 °F 37% 29.89 in 6.2 mi East 10.4 mph - N/A   Mostly Cloudy
10:00 AM 48 °F - 24 °F 26% 29.91 in 12 mi East 10.4 mph - -   Partly Cloudy
10:55 AM 44.6 °F 38.8 °F 37.4 °F 76% 29.92 in 6.2 mi SE 11.5 mph - N/A Rain Light Rain
11:55 AM 46.4 °F 40.7 °F 37.4 °F 71% 29.92 in 6.2 mi East 12.7 mph - N/A Rain Light Rain
12:55 PM 48.2 °F - 41.0 °F 76% 29.86 in 6.2 mi ESE 11.5 mph - N/A   Scattered Clouds
1:00 PM 49 °F - 41 °F 66% 29.89 in 6 mi ESE 11.5 mph - - Rain Light Rain
1:55 PM 53.6 °F - 42.8 °F 67% 29.86 in 6.2 mi WSW 13.8 mph - N/A   Scattered Clouds
2:55 PM 55.4 °F - 42.8 °F 63% 29.83 in 6.2 mi West 13.8 mph - N/A   Scattered Clouds
3:55 PM 51.8 °F - 44.6 °F 76% 29.80 in 5.0 mi ESE 11.5 mph - N/A   Scattered Clouds
4:00 PM 51 °F - 44 °F 70% 29.82 in 5 mi ESE 11.5 mph - -   Mist
5:29 PM 51.8 °F - 48.2 °F 88% 29.77 in 4.3 mi SW 17.3 mph 28.8 mph N/A   Scattered Clouds
5:55 PM 50.0 °F - 48.2 °F 94% 29.77 in 5.0 mi South 6.9 mph - N/A   Scattered Clouds
7:00 PM 49 °F - 47 °F 88% 29.78 in 5 mi SE 9.2 mph - - Rain Light Rain
7:55 PM 48.2 °F - 46.4 °F 93% 29.77 in 5.0 mi ESE 10.4 mph - N/A Rain Light Rain
8:33 PM 53.6 °F - 51.8 °F 94% 29.74 in 3.7 mi SW 17.3 mph - N/A Rain Heavy Rain
8:55 PM 53.6 °F - 51.8 °F 94% 29.71 in 4.3 mi SW 20.7 mph - N/A Rain Light Rain
9:55 PM 53.6 °F - 51.8 °F 94% 29.68 in 4.3 mi SW 25.3 mph - N/A Rain , Thunderstorm Light Thunderstorms and Rain
10:00 PM 53 °F - 51 °F 92% 29.70 in 4 mi SW 25.3 mph - - Rain , Thunderstorm Thunderstorms and Rain
10:37 PM 55.4 °F - 42.8 °F 63% 29.65 in 5.0 mi SW 24.2 mph 35.7 mph N/A   Scattered Clouds
10:55 PM 57.2 °F - 44.6 °F 63% 29.65 in 5.0 mi WSW 20.7 mph - N/A   Scattered Clouds
11:55 PM 53.6 °F - 50.0 °F 88% 29.62 in 5.0 mi SW 19.6 mph 31.1 mph N/A Rain Light Rain